TimeEDT,TemperatureF,Dew PointF,Humidity,Sea Level PressureIn,VisibilityMPH,Wind Direction,Wind SpeedMPH,Gust SpeedMPH,PrecipitationIn,Events,Conditions,WindDirDegrees,DateUTC
12:15 AM,33.4,32.7,97,30.28,10.0,Calm,Calm,-,N/A,,Clear,0,2013-10-15 04:15:00
12:34 AM,31.3,30.9,99,30.28,10.0,Calm,Calm,-,N/A,,Clear,0,2013-10-15 04:34:00
12:55 AM,33.3,33.3,100,30.28,10.0,Calm,Calm,-,N/A,,Clear,0,2013-10-15 04:55:00
1:14 AM,31.1,31.1,100,30.28,10.0,Calm,Calm,-,N/A,,Clear,0,2013-10-15 05:14:00
1:35 AM,30.7,30.4,99,30.27,10.0,Calm,Calm,-,N/A,,Clear,0,2013-10-15 05:35:00
1:55 AM,31.1,30.2,96,30.26,10.0,Calm,Calm,-,N/A,,Clear,0,2013-10-15 05:55:00
2:15 AM,31.3,30.7,98,30.26,10.0,Calm,Calm,-,N/A,,Clear,0,2013-10-15 06:15:00
2:35 AM,31.1,31.1,100,30.26,10.0,Calm,Calm,-,N/A,,Clear,0,2013-10-15 06:35:00
2:54 AM,29.8,29.7,99,30.25,10.0,Calm,Calm,-,N/A,,Clear,0,2013-10-15 06:54:00
3:15 AM,28.6,28.2,99,30.25,10.0,Calm,Calm,-,N/A,,Clear,0,2013-10-15 07:15:00
3:34 AM,28.4,28.2,99,30.24,10.0,Calm,Calm,-,N/A,,Clear,0,2013-10-15 07:34:00
3:55 AM,28.4,28.4,100,30.24,10.0,Calm,Calm,-,N/A,,Clear,0,2013-10-15 07:55:00
4:15 AM,28.4,28.4,100,30.23,10.0,Calm,Calm,-,N/A,,Clear,0,2013-10-15 08:15:00
4:35 AM,28.4,28.4,100,30.22,10.0,Calm,Calm,-,N/A,,Clear,0,2013-10-15 08:35:00
4:55 AM,28.4,27.7,97,30.21,10.0,Calm,Calm,-,N/A,,Scattered Clouds,0,2013-10-15 08:55:00
5:14 AM,28.4,27.1,95,30.21,10.0,Calm,Calm,-,N/A,,Clear,0,2013-10-15 09:14:00
5:35 AM,29.3,28.6,97,30.19,10.0,Calm,Calm,-,N/A,,Clear,0,2013-10-15 09:35:00
5:55 AM,28.4,27.0,94,30.18,10.0,Calm,Calm,-,N/A,,Clear,0,2013-10-15 09:55:00
6:14 AM,29.1,27.3,93,30.18,10.0,Calm,Calm,-,N/A,,Mostly Cloudy,0,2013-10-15 10:14:00
6:35 AM,30.0,29.1,96,30.17,10.0,Calm,Calm,-,N/A,,Scattered Clouds,0,2013-10-15 10:35:00
6:54 AM,31.1,31.1,100,30.16,10.0,Calm,Calm,-,N/A,,Clear,0,2013-10-15 10:54:00
7:15 AM,31.1,30.6,98,30.15,10.0,Calm,Calm,-,N/A,,Clear,0,2013-10-15 11:15:00
7:35 AM,31.1,30.2,96,30.15,10.0,Calm,Calm,-,N/A,,Scattered Clouds,0,2013-10-15 11:35:00
7:54 AM,33.1,32.7,99,30.14,10.0,Calm,Calm,-,N/A,,Mostly Cloudy,0,2013-10-15 11:54:00
8:15 AM,33.3,33.3,100,30.15,10.0,Calm,Calm,-,N/A,,Overcast,0,2013-10-15 12:15:00
8:35 AM,33.4,33.3,99,30.15,2.5,Calm,Calm,-,N/A,,Overcast,0,2013-10-15 12:35:00
8:54 AM,34.9,34.9,100,30.14,0.2,Calm,Calm,-,N/A,Fog,Fog,0,2013-10-15 12:54:00
9:15 AM,35.8,35.8,100,30.14,0.5,East,3.5,-,N/A,Fog,Fog,100,2013-10-15 13:15:00
9:34 AM,35.8,35.8,100,30.14,0.8,Calm,Calm,-,N/A,,Overcast,0,2013-10-15 13:34:00
9:55 AM,38.3,38.3,100,30.13,0.2,Calm,Calm,-,N/A,Fog,Fog,0,2013-10-15 13:55:00
10:15 AM,39.2,39.2,100,30.11,0.2,Calm,Calm,-,N/A,Fog,Fog,0,2013-10-15 14:15:00
10:34 AM,41.0,41.0,100,30.11,0.2,East,3.5,-,N/A,Fog,Fog,100,2013-10-15 14:34:00
10:55 AM,42.1,42.1,100,30.09,0.5,East,3.5,-,N/A,Fog,Fog,100,2013-10-15 14:55:00
11:14 AM,46.8,46.8,100,30.08,4.0,East,5.8,-,N/A,,Overcast,100,2013-10-15 15:14:00
11:35 AM,49.6,49.6,100,30.05,10.0,ESE,6.9,-,N/A,,Scattered Clouds,110,2013-10-15 15:35:00
11:55 AM,54.1,47.8,79,30.04,10.0,SSE,10.4,18.4,N/A,,Scattered Clouds,150,2013-10-15 15:55:00
12:14 PM,55.6,47.3,74,30.03,10.0,SSE,13.8,18.4,N/A,,Scattered Clouds,150,2013-10-15 16:14:00
12:35 PM,55.9,46.6,71,30.01,10.0,SE,15.0,-,N/A,,Clear,140,2013-10-15 16:35:00
12:54 PM,58.3,47.3,67,30.01,10.0,SSE,13.8,21.9,N/A,,Clear,150,2013-10-15 16:54:00
1:15 PM,58.6,46.8,65,30.00,10.0,South,12.7,-,N/A,,Scattered Clouds,170,2013-10-15 17:15:00
1:35 PM,59.9,47.5,64,29.98,10.0,SSE,15.0,19.6,N/A,,Scattered Clouds,150,2013-10-15 17:35:00
1:54 PM,61.0,48.2,63,29.97,10.0,SSE,13.8,17.3,N/A,,Scattered Clouds,160,2013-10-15 17:54:00
2:15 PM,59.9,47.1,63,29.96,10.0,South,12.7,-,N/A,,Clear,170,2013-10-15 18:15:00
2:35 PM,59.5,47.5,64,29.95,10.0,SSE,13.8,18.4,N/A,,Scattered Clouds,150,2013-10-15 18:35:00
2:55 PM,59.9,47.7,64,29.94,10.0,SE,12.7,17.3,N/A,,Mostly Cloudy,140,2013-10-15 18:55:00
3:15 PM,60.8,48.4,64,29.93,10.0,SSE,12.7,-,N/A,,Overcast,160,2013-10-15 19:15:00
3:35 PM,61.0,48.7,64,29.91,10.0,SSE,6.9,-,N/A,,Overcast,150,2013-10-15 19:35:00
3:55 PM,61.0,50.0,67,29.90,10.0,SSE,10.4,-,N/A,,Overcast,150,2013-10-15 19:55:00
4:14 PM,60.1,50.0,69,29.89,10.0,SSE,9.2,-,N/A,,Overcast,160,2013-10-15 20:14:00
4:35 PM,59.9,50.0,70,29.88,10.0,SE,9.2,-,N/A,,Overcast,130,2013-10-15 20:35:00
4:55 PM,59.0,50.0,72,29.87,10.0,SE,9.2,-,N/A,,Overcast,140,2013-10-15 20:55:00
5:14 PM,58.5,50.2,74,29.86,10.0,ESE,8.1,-,N/A,,Overcast,120,2013-10-15 21:14:00
5:35 PM,58.5,51.6,78,29.85,10.0,ESE,11.5,-,N/A,Rain,Light Rain,110,2013-10-15 21:35:00
5:54 PM,57.4,52.2,83,29.84,10.0,ESE,8.1,-,N/A,Rain,Light Rain,110,2013-10-15 21:54:00
6:15 PM,55.9,53.2,91,29.85,7.0,ESE,6.9,-,N/A,Rain,Rain,120,2013-10-15 22:15:00
6:35 PM,55.9,55.0,97,29.83,5.0,ESE,8.1,-,N/A,Rain,Light Rain,110,2013-10-15 22:35:00
6:54 PM,55.0,54.7,99,29.82,7.0,ESE,8.1,-,N/A,Rain,Rain,110,2013-10-15 22:54:00
7:15 PM,54.7,54.7,100,29.81,5.0,ESE,9.2,-,N/A,Rain,Light Rain,120,2013-10-15 23:15:00
7:35 PM,55.9,55.9,100,29.82,5.0,ESE,4.6,-,N/A,Rain,Light Rain,120,2013-10-15 23:35:00
7:55 PM,55.8,55.8,100,29.80,5.0,ESE,5.8,-,N/A,Rain,Light Rain,120,2013-10-15 23:55:00
8:15 PM,55.9,55.9,100,29.80,5.0,SSE,5.8,-,N/A,Rain,Light Rain,150,2013-10-16 00:15:00
8:34 PM,55.9,55.9,100,29.79,5.0,SSE,5.8,-,N/A,Rain,Heavy Rain,150,2013-10-16 00:34:00
8:55 PM,55.9,55.9,100,29.79,5.0,SSE,6.9,-,N/A,,Light Drizzle,150,2013-10-16 00:55:00
9:15 PM,55.9,55.9,100,29.78,5.0,SSE,6.9,-,N/A,,Light Drizzle,150,2013-10-16 01:15:00
9:35 PM,55.9,55.9,100,29.78,5.0,SSE,6.9,-,N/A,,Overcast,150,2013-10-16 01:35:00
9:55 PM,55.9,55.9,100,29.78,7.0,SSE,6.9,-,N/A,,Overcast,160,2013-10-16 01:55:00
10:14 PM,56.3,56.3,100,29.77,7.0,South,5.8,-,N/A,,Overcast,170,2013-10-16 02:14:00
10:35 PM,56.8,56.8,100,29.77,5.0,SSW,4.6,-,N/A,,Overcast,200,2013-10-16 02:35:00
10:54 PM,58.5,58.5,100,29.76,7.0,South,5.8,-,N/A,Rain,Rain,170,2013-10-16 02:54:00
11:15 PM,58.5,58.5,100,29.76,10.0,Calm,Calm,-,N/A,,Overcast,0,2013-10-16 03:15:00
11:35 PM,58.5,58.5,100,29.75,10.0,SW,3.5,-,N/A,,Overcast,230,2013-10-16 03:35:00
11:54 PM,58.3,58.3,100,29.75,10.0,Calm,Calm,-,N/A,,Overcast,0,2013-10-16 03:54:00